sat.trackr.live / text

‹ back to catalog

CENTISPACE-2 S9

NORAD 68358 · 2026-060J

PAYLOAD ACTIVE UNKNOWN

§ Identity

Operator
Country
PRC
Launch date
2026-03-22
Launch site
YSLA
Launch vehicle
Mass (kg)
RCS (m²)

External: N2YO · Heavens-Above · Gunter

§ Orbital elements

Epoch: 2026-09-18T21:50:19.159008Z

Period
101.25 min
Inclination
54.9798°
Eccentricity
0.0009831
Mean motion
14.22206698 rev/d
Perigee alt
810.8 km
Apogee alt
825.0 km
Semi-major
7,196.0 km
B*
7.2328e-5
RAAN
32.3638°
Arg perigee
267.7571°
Mean anomaly
92.2278°
Rev number
2,630

§ Raw data

CENTISPACE-2 S91 68358U 26060J   26261.90994397  .00000005  00000+0  72328-4 0  99912 68358  54.9798  32.3638 0009831 267.7571  92.2278 14.22206698 26306

JSON: /api/v1/satellites/68358 · /tle

For live sub-satellite position, see the globe view (requires WebGL).

§ Visibility from observer

Set your observer location to see the next 7 days of passes ≥ 10°. The values pass through the URL so the page stays shareable.

No JS? Fill the form by hand. The geolocation button needs JavaScript.